This is the latest recevied weather packets stored in our database for station/object SM0UQT-10. If no packets are shown the sender has not sent any weather packets the latest 10 day(s).
| Time | Temp. | Humidity | Pressure | Rain* | Wind** | Luminosity | Snow |
|---|---|---|---|---|---|---|---|
| 1777913725 | 23.89° C | 33% | 1008 hPa | - | - | - | - |
| 1777912662 | 23.89° C | 33% | 1007.8 hPa | - | - | - | - |
| 1777912525 | 23.89° C | 33% | 1007.8 hPa | - | - | - | - |
| 1777911325 | 23.33° C | 33% | 1007.7 hPa | - | - | - | - |
| 1777910173 | 23.33° C | 33% | 1007.6 hPa | - | - | - | - |
| 1777910124 | 23.33° C | 33% | 1007.6 hPa | - | - | - | - |
| 1777909052 | 23.89° C | 33% | 1007.4 hPa | - | - | - | - |
| 1777908923 | 23.89° C | 33% | 1007.4 hPa | - | - | - | - |
| 1777907772 | 22.22° C | 36% | 1007.2 hPa | - | - | - | - |
| 1777907723 | 22.22° C | 36% | 1007.2 hPa | - | - | - | - |
| 1777906723 | 19.44° C | 38% | 1007.2 hPa | - | - | - | - |
| 1777906523 | 19.44° C | 38% | 1007.2 hPa | - | - | - | - |
| 1777905355 | 20° C | 38% | 1007.2 hPa | - | - | - | - |
| 1777905322 | 20° C | 38% | 1007.2 hPa | - | - | - | - |
| 1777904242 | 21.67° C | 37% | 1007.3 hPa | - | - | - | - |
| 1777904128 | 21.67° C | 37% | 1007.3 hPa | - | - | - | - |
| 1777903284 | 23.89° C | 37% | 1007 hPa | - | - | - | - |
| 1777902927 | 23.89° C | 37% | 1007 hPa | - | - | - | - |
| 1777901727 | 22.78° C | 39% | 1007.1 hPa | - | - | - | - |
| 1777900564 | 20.56° C | 42% | 1007.1 hPa | - | - | - | - |
| 1777900527 | 20.56° C | 42% | 1007.1 hPa | - | - | - | - |
| 1777899569 | 23.33° C | 39% | 1007.1 hPa | - | - | - | - |
| 1777899327 | 23.33° C | 39% | 1007.1 hPa | - | - | - | - |
| 1777898127 | 23.33° C | 38% | 1007.3 hPa | - | - | - | - |
| 1777896926 | 23.33° C | 38% | 1007.4 hPa | - | - | - | - |
* Rain since midnight (hover to see other rain measurements)
** Current wind speed in m/s (hover to see current wind gust speed)